Weather History for KHNB - January, 2014

Change the Weather History Date:

Sunday, January 5, 2014

  Actual Average Record
Temperature  
Mean Temperature 26 °F -  
Max Temperature 39 °F 39 °F 62 °F (2007)
Min Temperature 12 °F 25 °F 0 °F (1999)
Degree Days  
Heating Degree Days 40    
Moisture  
Dew Point 26 °F    
Average Humidity 77    
Maximum Humidity 93    
Minimum Humidity 49    
Precipitation  
Precipitation 0.49 in - - ()
Sea Level Pressure  
Sea Level Pressure 29.84 in    
Wind  
Wind Speed 8 mph (ENE)    
Max Wind Speed 30 mph    
Max Gust Speed 44 mph    
Visibility 6 miles    
Events      
Averages and records for this station are not official NWS values.
T = Trace of Precipitation, MM = Missing Value Source: NWS Daily Summary

Daily Weather History Graph

Daily Weather History Graph

Search for Another Location

Airport or City:

Trip Planner

Search our weather history database for the weather conditions in past years. The results will help you decide how hot, cold, wet, or windy it might be!

Date:

Astronomy

Jan. 05, 2014 Rise Set
Actual Time 8:04 AM EST 5:41 PM EST
Civil Twilight 7:35 AM EST 6:11 PM EST
Nautical Twilight 7:02 AM EST 6:44 PM EST
Astronomical Twilight 6:30 AM EST 7:16 PM EST
Moon 10:50 AM EST (1/5) 11:04 PM EST (1/5)
Length of Visible Light 10h 35m
Length of Day
9h 36m
Waxing Crescent, 24% of the Moon is Illuminated
Jan 5
Waxing Crescent
Jan 7
First Quarter
Jan 15
Full
Jan 24
Last Quarter
Jan 30
New

Hourly Weather History & Observations

Time (EST) Temp. Windchill Dew Point Humidity Pressure Visibility Wind Dir Wind Speed Gust Speed Precip Events Conditions
12:15 AM 39.2 °F 34.2 °F 21.2 °F 49% 30.03 in 10.0 mi South 6.9 mph - N/A   Overcast
12:35 AM 39.2 °F 34.2 °F 21.2 °F 49% 30.03 in 10.0 mi South 6.9 mph - N/A   Overcast
12:55 AM 39.2 °F 34.2 °F 21.2 °F 49% 30.02 in 10.0 mi South 6.9 mph - N/A   Overcast
1:15 AM 39.2 °F 33.6 °F 23.0 °F 52% 30.02 in 10.0 mi South 8.1 mph - N/A   Overcast
1:35 AM 39.2 °F 35.9 °F 23.0 °F 52% 30.02 in 10.0 mi South 4.6 mph - N/A   Overcast
1:55 AM 39.2 °F 35.9 °F 23.0 °F 52% 30.01 in 10.0 mi SE 4.6 mph - N/A   Overcast
2:15 AM 37.4 °F 33.8 °F 24.8 °F 60% 30.00 in 10.0 mi SSE 4.6 mph - N/A   Overcast
2:35 AM 37.4 °F 34.9 °F 24.8 °F 60% 30.00 in 10.0 mi SE 3.5 mph - N/A   Overcast
2:55 AM 37.4 °F - 24.8 °F 60% 30.00 in 10.0 mi Calm Calm - N/A   Overcast
3:15 AM 37.4 °F 34.9 °F 24.8 °F 60% 30.00 in 10.0 mi ESE 3.5 mph - N/A   Overcast
3:35 AM 37.4 °F 34.9 °F 24.8 °F 60% 29.99 in 10.0 mi ESE 3.5 mph - N/A   Overcast
3:55 AM 39.2 °F 37.0 °F 24.8 °F 56% 29.98 in 10.0 mi ESE 3.5 mph - N/A   Overcast
4:15 AM 37.4 °F 33.8 °F 26.6 °F 65% 29.97 in 10.0 mi East 4.6 mph - N/A   Overcast
4:35 AM 37.4 °F 33.8 °F 26.6 °F 65% 29.96 in 10.0 mi ENE 4.6 mph - N/A   Overcast
4:55 AM 37.4 °F 34.9 °F 26.6 °F 65% 29.96 in 10.0 mi East 3.5 mph - N/A   Overcast
5:15 AM 37.4 °F 33.8 °F 26.6 °F 65% 29.94 in 10.0 mi East 4.6 mph - N/A   Overcast
5:35 AM 37.4 °F 32.1 °F 26.6 °F 65% 29.93 in 10.0 mi East 6.9 mph - N/A   Overcast
5:55 AM 37.4 °F 32.1 °F 26.6 °F 65% 29.92 in 10.0 mi SE 6.9 mph - N/A   Overcast
6:15 AM 37.4 °F 31.4 °F 28.4 °F 70% 29.92 in 10.0 mi ESE 8.1 mph - N/A   Overcast
6:35 AM 37.4 °F 31.4 °F 28.4 °F 70% 29.90 in 10.0 mi SE 8.1 mph - N/A   Overcast
6:55 AM 39.2 °F 37.0 °F 28.4 °F 65% 29.91 in 10.0 mi SE 3.5 mph - N/A   Overcast
7:15 AM 37.4 °F 34.9 °F 28.4 °F 70% 29.92 in 10.0 mi ENE 3.5 mph - N/A   Overcast
7:35 AM 37.4 °F 33.8 °F 28.4 °F 70% 29.92 in 10.0 mi East 4.6 mph - N/A   Overcast
7:55 AM 37.4 °F 33.8 °F 28.4 °F 70% 29.91 in 9.0 mi East 4.6 mph - N/A   Overcast
8:15 AM 37.4 °F 32.1 °F 30.2 °F 75% 29.90 in 10.0 mi East 6.9 mph - N/A   Overcast
8:35 AM 37.4 °F 31.4 °F 30.2 °F 75% 29.88 in 10.0 mi East 8.1 mph - N/A   Overcast
8:55 AM 37.4 °F 32.1 °F 30.2 °F 75% 29.87 in 10.0 mi East 6.9 mph - N/A   Overcast
9:15 AM 37.4 °F 30.8 °F 30.2 °F 75% 29.85 in 10.0 mi ESE 9.2 mph - N/A   Overcast
9:35 AM 37.4 °F 31.4 °F 30.2 °F 75% 29.84 in 10.0 mi ESE 8.1 mph - N/A   Overcast
9:55 AM 37.4 °F 32.1 °F 32.0 °F 81% 29.82 in 8.0 mi ESE 6.9 mph - N/A   Overcast
10:15 AM 37.4 °F 31.4 °F 33.8 °F 87% 29.81 in 5.0 mi ESE 8.1 mph - N/A   Overcast
10:35 AM 37.4 °F 31.4 °F 33.8 °F 87% 29.79 in 6.0 mi ESE 8.1 mph - N/A   Overcast
10:55 AM 37.4 °F 32.1 °F 33.8 °F 87% 29.77 in 8.0 mi ESE 6.9 mph - N/A   Overcast
11:15 AM 37.4 °F - 35.6 °F 93% 29.76 in 5.0 mi Calm Calm - N/A   Overcast
11:35 AM 37.4 °F 32.1 °F 33.8 °F 87% 29.75 in 4.0 mi North 6.9 mph - N/A   Overcast
11:55 AM 37.4 °F 32.8 °F 33.8 °F 87% 29.74 in 2.0 mi North 5.8 mph - 0.03 in   Overcast
12:15 PM 35.6 °F 28.0 °F 33.8 °F 93% 29.73 in 2.5 mi North 10.4 mph - 0.04 in   Overcast
12:35 PM 35.6 °F 29.9 °F 33.8 °F 93% 29.72 in 2.5 mi North 6.9 mph - 0.09 in   Overcast
12:55 PM 35.6 °F 29.2 °F 33.8 °F 93% 29.70 in 1.8 mi North 8.1 mph - 0.17 in   Overcast
1:15 PM 35.6 °F 29.9 °F 33.8 °F 93% 29.69 in 2.0 mi ENE 6.9 mph - 0.04 in   Overcast
1:35 PM 35.6 °F 28.6 °F 33.8 °F 93% 29.64 in 1.8 mi East 9.2 mph - 0.12 in   Overcast
1:55 PM 37.4 °F 32.8 °F 35.6 °F 93% 29.63 in 3.0 mi East 5.8 mph - 0.15 in   Overcast
2:15 PM 37.4 °F 34.9 °F 35.6 °F 93% 29.62 in 3.0 mi East 3.5 mph - 0.01 in   Overcast
2:35 PM 37.4 °F - 35.6 °F 93% 29.62 in 2.5 mi Calm Calm - 0.06 in   Overcast
2:55 PM 37.4 °F 34.9 °F 33.8 °F 87% 29.60 in 1.8 mi East 3.5 mph - 0.08 in   Overcast
3:15 PM 37.4 °F 32.8 °F 35.6 °F 93% 29.59 in 2.5 mi East 5.8 mph - 0.01 in   Overcast
3:35 PM 37.4 °F 34.9 °F 35.6 °F 93% 29.59 in 1.8 mi SE 3.5 mph - 0.02 in   Overcast
3:55 PM 37.4 °F 34.9 °F 35.6 °F 93% 29.59 in 1.8 mi SE 3.5 mph - 0.03 in   Overcast
4:15 PM 37.4 °F 33.8 °F 35.6 °F 93% 29.58 in 1.5 mi SE 4.6 mph - 0.02 in   Overcast
4:35 PM 37.4 °F - 35.6 °F 93% 29.58 in 1.5 mi Calm Calm - 0.02 in   Overcast
4:55 PM 37.4 °F 29.8 °F 35.6 °F 93% 29.60 in 0.5 mi WNW 11.5 mph 17.3 mph 0.02 in   Overcast
5:15 PM 35.6 °F 24.8 °F 33.8 °F 93% 29.62 in 1.5 mi NW 19.6 mph 32.2 mph 0.01 in   Overcast
5:35 PM 33.8 °F 22.8 °F 30.2 °F 87% 29.64 in 2.0 mi NW 18.4 mph 25.3 mph 0.01 in   Overcast
5:55 PM 33.8 °F 22.2 °F 30.2 °F 87% 29.65 in 2.5 mi NW 20.7 mph - 0.01 in   Overcast
6:15 PM 30.2 °F 17.8 °F 28.4 °F 93% 29.68 in 2.5 mi NW 19.6 mph 27.6 mph N/A   Overcast
6:35 PM 30.2 °F 18.5 °F 26.6 °F 86% 29.69 in 3.0 mi NW 17.3 mph 29.9 mph N/A   Overcast
6:55 PM 28.4 °F 16.2 °F 24.8 °F 86% 29.71 in 2.0 mi NW 17.3 mph 25.3 mph N/A   Overcast
7:15 PM 26.6 °F 12.4 °F 24.8 °F 93% 29.74 in 2.0 mi NW 21.9 mph 31.1 mph N/A   Overcast
7:35 PM 26.6 °F 11.4 °F 21.2 °F 80% 29.76 in 2.5 mi NW 25.3 mph 35.7 mph N/A   Overcast
7:55 PM 23.0 °F 5.4 °F 19.4 °F 86% 29.79 in 2.0 mi NW 29.9 mph 40.3 mph N/A   Overcast
8:15 PM 21.2 °F 5.2 °F 15.8 °F 80% 29.83 in 5.0 mi NW 21.9 mph 38.0 mph N/A   Overcast
8:35 PM 19.4 °F 1.4 °F 14.0 °F 80% 29.86 in 7.0 mi NW 26.5 mph 43.7 mph N/A   Overcast
8:55 PM 19.4 °F 1.8 °F 14.0 °F 80% 29.89 in 6.0 mi NW 25.3 mph 39.1 mph N/A   Overcast
9:15 PM 17.6 °F -1.3 °F 10.4 °F 73% 29.91 in 6.0 mi NW 27.6 mph 34.5 mph N/A   Overcast
9:35 PM 17.6 °F 0.5 °F 10.4 °F 73% 29.94 in 3.0 mi NW 21.9 mph 35.7 mph N/A   Mostly Cloudy
9:55 PM 15.8 °F -0.6 °F 10.4 °F 79% 29.96 in 5.0 mi NW 18.4 mph 28.8 mph N/A   Clear
10:15 PM 15.8 °F -3.4 °F 8.6 °F 73% 29.97 in 1.8 mi NNW 26.5 mph 39.1 mph N/A   Scattered Clouds
10:35 PM 15.8 °F -2.3 °F 10.4 °F 79% 29.99 in 3.0 mi NW 23.0 mph 31.1 mph N/A   Clear
10:55 PM 12.2 °F -6.3 °F 6.8 °F 79% 30.01 in 4.0 mi NW 20.7 mph 33.4 mph N/A   Clear
11:15 PM 12.2 °F -6.7 °F 6.8 °F 79% 30.03 in 5.0 mi NW 21.9 mph 32.2 mph N/A   Clear
11:35 PM 12.2 °F -6.7 °F 6.8 °F 79% 30.05 in 4.0 mi NW 21.9 mph 32.2 mph N/A   Clear
11:55 PM 12.2 °F -4.3 °F 5.0 °F 73% 30.06 in 5.0 mi NW 16.1 mph 32.2 mph N/A   Partly Cloudy